Vorticity
nan nan nan nan nan nan nan nan nan nan nan nan nan nan nan nan nan nan nan nan nan nan nan nan nan nan nan nan nan nan nan nan nan nan nan nan nan nan nan nan nan nan nan nan nan nan nan nan nan nan nan nan nan nan nan nan nan nan nan nan nan nan nan nan nan nan nan nan nan nan nan nan nan nan nan nan nan nan nan nan nan nan nan nan nan nan nan nan nan nan nan nan nan nan nan nan nan nan nan nan nan nan nan
nan 4 4 4 4 5 5 5 5 5 5 4 4 4 5 5 5 5 6 6 5 5 5 4 4 5 5 6 8 9 10 12 13 13 12 10 8 7 6 6 5 5 4 4 4 4 6 8 7 6 7 8 7 6 5 4 6 6 8 7 5 5 6 6 6 6 7 7 7 6 4 3 7 11 12 9 6 4 3 3 3 4 5 5 5 5 5 4 4 3 3 3 3 5 6 5 5 5 4 4 3 3 nan
nan 4 4 4 4 4 5 5 5 5 5 4 4 4 4 5 5 5 6 6 5 5 5 5 4 5 5 6 7 9 10 12 13 13 12 9 8 6 5 5 5 4 4 4 4 3 3 5 6 6 6 7 8 7 6 5 5 6 7 6 4 5 6 5 6 7 7 8 8 7 4 2 4 7 9 8 6 4 4 4 3 3 4 4 4 4 4 4 4 4 4 4 3 4 4 5 5 5 5 4 3 3 nan
nan 4 4 4 4 4 5 5 5 5 5 5 4 4 4 4 4 5 5 6 6 5 5 5 4 4 5 6 7 8 10 11 12 12 11 9 7 6 5 4 4 4 5 4 5 4 2 3 5 6 5 5 6 6 6 6 6 6 7 5 3 5 7 6 7 7 7 8 8 8 5 3 3 4 5 5 5 4 4 4 4 4 4 4 4 3 4 4 4 4 4 4 4 4 4 5 5 5 5 5 5 5 nan
nan 4 4 4 4 4 5 5 5 5 5 5 5 5 4 4 4 5 5 5 5 5 5 5 4 4 5 6 7 8 9 10 11 11 10 8 7 6 5 4 4 4 4 5 5 7 7 6 5 5 4 4 4 4 4 5 5 6 6 5 2 4 8 8 7 7 7 8 9 9 6 4 3 2 3 4 4 4 4 4 4 4 4 4 4 4 4 4 4 4 4 4 4 4 5 5 5 5 5 6 6 6 nan
nan 4 4 5 5 5 5 5 5 5 5 5 5 5 5 4 4 4 5 5 5 6 5 5 4 4 5 5 6 7 8 9 10 10 9 8 7 6 5 4 4 4 4 4 5 7 8 7 6 5 4 4 5 5 4 5 5 6 5 4 3 5 7 8 7 7 8 9 9 10 8 5 4 3 3 3 3 3 4 4 4 4 4 4 4 4 4 4 4 5 5 4 4 5 5 5 5 5 6 6 6 6 nan
nan 4 4 5 5 5 5 4 4 4 5 5 5 5 5 5 5 4 5 5 5 5 6 5 4 4 5 5 6 6 7 8 9 9 9 8 7 6 5 5 4 4 4 4 5 7 8 7 6 6 5 5 5 6 5 5 5 6 5 4 4 7 8 7 6 7 9 10 10 10 9 6 5 4 3 3 2 2 3 3 4 4 4 4 4 5 5 5 5 5 5 5 5 5 5 5 5 6 6 7 7 7 nan
nan 4 5 5 5 5 5 4 4 4 5 5 5 5 5 5 5 5 5 5 5 5 5 5 5 4 4 5 5 6 6 7 8 9 9 8 8 7 6 6 5 5 5 4 5 6 8 7 6 5 5 5 4 5 5 5 5 5 5 3 4 7 8 7 7 8 10 10 10 10 9 6 4 3 3 3 2 2 3 3 3 4 4 4 4 5 5 5 5 6 6 6 6 6 6 6 6 6 6 7 7 7 nan
nan 5 5 5 5 5 5 4 4 4 4 5 5 5 5 5 5 5 5 5 5 5 5 5 5 4 4 5 5 5 5 6 7 7 8 9 8 8 7 7 6 6 5 5 5 5 7 7 6 5 5 5 4 5 6 5 4 5 5 3 5 7 7 7 8 10 11 11 10 9 8 6 4 3 3 3 3 3 3 4 3 4 4 4 4 5 5 5 5 6 6 7 7 7 7 7 7 7 7 7 7 7 nan
nan 6 5 4 4 5 4 4 4 4 5 5 5 5 5 5 5 5 5 5 5 5 5 5 5 5 4 4 5 5 5 5 6 6 7 7 8 8 8 8 7 7 6 5 5 5 7 8 6 6 6 5 5 5 6 5 4 5 5 3 4 5 6 7 9 12 12 11 10 8 8 7 5 4 4 3 3 3 3 4 4 4 4 5 5 5 5 5 5 6 6 6 7 7 8 8 8 8 7 7 7 8 nan
nan 8 6 4 4 4 4 5 4 4 5 5 5 5 5 6 6 6 6 6 6 5 6 6 6 5 5 4 5 5 5 5 5 5 6 6 7 8 9 9 9 8 6 5 5 4 6 7 7 7 6 6 6 6 7 6 5 6 4 2 3 3 5 8 11 14 12 10 8 7 7 7 6 5 4 3 3 3 3 4 4 4 5 5 5 6 6 6 6 6 6 6 7 7 7 8 8 8 8 8 8 8 nan
nan 9 7 4 3 4 5 5 5 4 4 5 5 5 6 6 6 7 7 6 6 6 6 7 6 6 5 5 5 5 6 6 6 5 5 5 5 7 8 9 9 9 7 6 4 4 4 5 6 6 6 6 6 7 6 6 6 6 3 1 4 5 6 8 12 15 13 9 6 5 5 5 5 4 3 3 3 3 4 4 4 5 5 6 6 6 6 6 6 6 6 6 6 7 7 8 8 8 8 8 8 8 nan
nan 7 6 5 4 5 5 5 5 5 4 4 5 5 5 6 6 7 7 7 7 7 7 7 7 6 5 5 5 6 7 7 6 5 5 4 5 6 7 9 10 9 8 5 4 3 3 5 5 6 6 6 6 6 6 7 6 5 1 2 6 6 6 8 11 15 13 9 5 4 3 2 3 2 3 3 3 3 4 4 5 5 6 6 6 6 6 6 6 6 6 6 6 6 7 7 7 8 8 8 8 8 nan
nan 4 6 8 7 6 5 5 5 5 4 4 4 5 5 6 6 7 7 8 8 8 8 8 7 6 6 5 6 6 6 7 6 5 5 5 5 5 7 9 10 10 8 5 4 4 5 6 6 6 6 6 6 6 6 7 7 3 -0 4 7 7 5 6 9 11 11 8 6 5 3 2 2 2 3 3 3 4 4 5 5 6 6 7 7 6 6 6 6 6 6 5 5 6 6 6 7 7 7 7 7 7 nan
nan 4 7 9 9 8 6 5 5 4 4 4 4 4 5 5 6 6 7 8 8 8 9 8 7 6 6 5 5 5 4 5 5 5 5 5 5 5 7 9 10 9 9 7 6 6 7 7 6 6 6 6 6 6 6 7 6 2 -0 5 8 8 6 6 7 8 8 6 5 4 3 2 2 3 3 3 3 4 4 5 6 6 6 7 7 6 6 6 6 6 5 5 5 5 5 6 6 7 7 7 7 7 nan
nan 5 6 7 8 9 8 7 6 5 4 4 4 4 4 5 5 6 6 7 8 8 9 8 7 6 6 5 4 3 0 0 1 3 3 4 5 5 7 8 9 9 8 9 7 7 7 7 7 7 7 7 6 6 7 6 4 0 1 6 8 8 7 6 6 5 4 3 3 3 3 3 3 3 3 3 4 4 4 5 6 6 7 7 7 7 6 6 6 6 5 5 5 5 5 5 6 6 7 7 7 7 nan
nan 5 5 6 7 8 9 9 8 7 5 4 4 4 4 4 4 5 6 6 7 8 9 9 8 7 6 5 4 2 -1 -3 -3 -2 0 2 4 5 6 7 8 9 9 8 7 7 7 8 7 7 7 7 7 6 7 6 3 0 3 6 7 8 8 7 5 3 1 1 2 2 3 3 3 3 3 4 4 4 5 5 6 7 7 7 7 7 6 6 6 6 6 5 5 5 5 5 5 5 6 7 7 7 nan
nan 5 5 6 6 6 8 9 9 8 6 4 4 4 4 4 5 5 5 6 7 8 9 10 9 7 5 5 4 4 4 2 0 -2 -3 -1 1 3 4 5 7 8 9 7 7 7 8 8 7 7 7 7 6 6 6 5 3 2 4 6 7 8 8 7 6 4 2 2 2 2 3 3 3 3 4 4 4 4 5 6 6 7 7 7 7 6 6 6 6 6 6 6 5 5 5 5 5 5 5 6 6 6 nan
nan 5 5 5 5 6 7 9 10 10 8 5 4 4 4 5 5 6 6 7 7 9 10 10 8 6 4 4 5 6 7 7 6 4 1 -1 -0 1 3 4 6 7 9 8 7 7 8 8 8 7 7 6 6 6 6 5 3 3 4 6 7 7 8 9 9 8 5 3 3 3 3 3 4 4 4 4 4 4 5 6 6 7 7 7 7 7 7 7 6 6 6 6 5 5 5 5 5 5 5 5 6 6 nan
nan 3 3 3 4 5 6 8 9 10 9 7 5 4 4 5 6 6 7 7 7 7 8 8 6 4 4 4 6 7 8 7 7 7 6 4 3 3 4 5 6 6 8 8 8 8 8 8 8 7 6 6 6 6 6 5 3 3 4 6 6 7 7 9 11 10 8 5 4 4 4 4 4 4 4 4 4 5 5 6 6 6 6 6 7 7 7 8 7 7 6 6 5 5 5 5 5 5 5 5 5 5 nan
nan 3 3 3 3 4 5 6 7 8 7 7 7 6 4 4 5 5 6 6 5 4 5 5 5 4 4 6 7 8 8 7 7 7 7 6 6 6 6 7 7 7 6 7 8 8 8 8 8 7 7 6 6 6 6 4 3 3 5 6 7 7 7 8 9 9 7 6 5 5 5 5 4 4 4 4 4 5 5 5 6 6 6 6 6 7 8 9 8 8 7 6 5 5 5 5 6 6 6 6 5 5 nan
nan 6 5 5 4 4 4 5 6 6 6 7 8 7 6 5 4 4 5 6 3 2 2 3 5 6 5 6 7 7 8 8 7 7 7 6 6 6 7 7 7 7 6 6 7 7 8 8 8 8 7 7 6 6 4 3 4 4 6 7 7 7 7 8 7 6 5 5 5 5 5 6 5 4 4 4 4 4 5 5 5 5 5 6 6 7 8 9 9 9 7 6 5 5 5 5 5 6 6 6 6 6 nan
nan 7 7 6 6 5 5 6 7 6 5 6 8 8 7 6 6 6 6 6 5 4 4 5 5 6 6 6 6 7 8 8 8 8 7 7 6 6 6 7 7 7 7 7 6 7 7 7 8 8 8 7 7 6 4 3 4 4 6 7 7 7 7 7 6 6 7 6 6 6 7 6 5 4 4 4 4 4 4 5 5 5 5 5 6 6 7 9 10 10 8 6 5 5 5 5 5 5 6 7 7 6 nan
nan 6 6 6 6 5 5 6 6 7 6 6 7 7 7 7 7 7 7 7 7 6 6 6 6 6 6 6 6 7 7 7 8 8 8 7 7 6 6 6 7 7 7 7 7 6 6 7 7 8 8 7 7 7 5 3 3 4 5 7 7 7 7 7 6 7 10 10 9 9 8 6 4 4 4 4 4 4 4 4 4 4 5 5 5 5 7 8 9 9 8 6 5 5 5 5 5 5 6 7 7 7 nan
nan 5 6 6 6 6 5 5 5 5 6 6 7 6 5 6 6 7 7 7 7 7 7 7 7 7 6 6 6 6 6 6 7 7 7 7 7 7 6 6 6 6 6 7 7 7 6 6 7 7 7 8 8 7 6 4 3 4 5 6 7 8 7 7 7 8 10 11 11 11 9 6 4 3 3 3 4 4 5 4 4 4 4 5 5 5 6 6 7 8 7 6 6 5 5 5 5 6 6 7 7 7 nan
nan 5 6 7 7 7 6 5 5 4 5 6 6 6 4 4 5 6 7 7 7 7 6 7 7 7 7 6 6 6 6 6 6 6 6 6 6 6 6 6 6 6 6 6 7 7 6 6 7 7 7 7 7 7 6 5 5 4 4 5 6 7 7 7 7 7 8 10 10 10 9 7 5 3 2 3 3 4 5 5 4 4 4 5 5 5 5 6 7 7 7 7 6 5 5 5 5 6 7 7 7 6 nan
nan 5 6 6 7 7 7 6 6 5 4 4 5 5 4 3 4 4 5 5 5 5 5 5 6 6 6 6 6 6 6 6 6 6 6 5 5 5 6 6 6 6 6 6 6 6 7 7 7 7 7 7 7 7 7 6 6 5 4 4 5 7 7 7 7 8 8 8 7 8 9 9 5 3 3 3 4 5 5 5 5 4 4 4 5 5 6 6 6 7 7 7 6 5 5 5 6 6 7 8 7 6 nan
nan 6 6 6 6 7 7 7 7 6 5 3 3 3 4 4 4 3 3 4 4 4 4 5 5 6 6 6 6 6 6 6 6 6 7 6 6 5 6 6 6 6 6 5 5 6 6 7 7 7 7 6 6 7 7 8 7 6 5 4 5 6 7 7 7 7 8 6 5 4 9 12 9 7 4 3 4 5 5 5 4 4 4 4 5 5 6 6 6 6 7 7 6 6 5 5 6 7 7 8 7 6 nan
nan 6 6 6 6 6 6 7 7 7 7 5 4 4 6 6 6 5 4 4 5 5 5 5 5 5 5 5 4 5 5 6 6 6 6 6 7 7 7 6 6 6 6 5 5 6 6 7 7 8 8 7 6 6 6 7 8 7 6 5 5 6 7 7 7 7 7 6 5 5 8 11 12 9 6 4 4 5 5 5 5 5 4 4 5 5 6 6 6 6 6 6 6 5 5 5 6 7 8 8 7 5 nan
nan 7 7 7 6 6 6 6 7 7 7 7 6 6 8 8 8 7 7 6 6 6 6 5 5 4 4 3 4 5 5 5 5 6 5 5 6 7 6 6 7 7 6 7 7 8 8 8 8 8 10 9 7 6 6 7 8 8 6 5 5 6 7 7 7 7 7 7 6 5 5 8 12 11 8 5 5 4 4 5 5 4 4 4 5 5 6 6 6 6 6 6 5 5 5 5 6 7 8 8 6 5 nan
nan 7 7 7 7 6 7 7 7 7 8 7 6 6 7 8 8 8 8 7 7 7 7 6 6 6 6 5 6 7 7 7 6 6 5 6 5 5 5 5 6 7 7 8 8 8 9 9 9 9 9 8 8 7 7 7 8 9 8 7 6 6 7 7 8 7 7 6 6 5 5 8 12 12 10 7 5 4 4 5 5 5 5 4 4 5 6 6 6 6 6 5 5 5 5 5 6 7 9 9 7 5 nan
nan 7 7 7 7 7 7 7 7 7 8 7 7 6 7 7 7 7 7 7 7 7 7 7 8 8 7 7 8 10 10 9 7 6 6 6 6 7 7 7 7 7 8 7 7 7 8 9 9 8 7 6 6 7 7 6 7 9 11 9 8 7 7 7 7 7 7 6 6 6 6 8 9 11 11 9 7 5 4 4 5 5 5 4 4 5 6 6 7 6 6 6 5 5 5 5 6 7 9 10 8 7 nan
nan 7 7 6 7 7 7 7 7 8 8 8 7 7 7 7 7 6 6 7 7 7 7 7 7 8 9 8 9 10 11 10 8 7 7 7 8 9 9 8 8 8 8 7 7 7 8 8 8 8 8 8 6 5 6 6 7 8 11 12 11 9 7 7 7 7 8 8 7 7 8 7 8 9 10 9 7 6 4 4 5 6 6 5 5 5 6 6 7 7 6 6 5 5 5 5 5 6 9 10 9 8 nan
nan 6 7 7 7 7 7 7 7 8 9 9 8 7 7 7 7 7 6 6 8 8 9 9 9 10 11 10 9 9 9 9 9 8 7 6 7 8 9 8 8 9 7 6 6 7 7 7 8 9 9 9 7 6 5 6 7 7 9 10 10 9 8 7 8 8 8 9 9 9 9 9 8 7 8 8 8 6 5 4 5 6 6 6 5 5 5 6 7 7 7 6 6 5 5 5 5 5 7 8 8 8 nan
nan 6 7 7 7 7 7 7 7 8 8 9 9 9 8 7 7 8 8 8 8 8 9 10 10 9 10 9 7 5 5 7 8 8 7 6 6 7 8 7 8 9 8 8 8 8 7 8 8 9 9 9 9 8 7 6 7 7 7 8 9 9 9 9 9 9 8 9 10 10 11 10 9 7 7 7 7 7 6 5 5 6 6 6 6 5 5 6 6 7 7 7 6 6 5 5 5 5 6 7 7 7 nan
nan 7 7 7 7 7 7 7 7 8 7 8 9 10 10 9 8 8 8 8 8 8 8 8 7 6 5 6 5 4 3 4 5 6 7 8 8 8 7 8 8 8 8 9 10 10 8 7 8 9 9 10 10 9 8 7 6 6 7 8 9 10 10 10 10 9 8 9 10 10 11 12 11 10 8 7 6 6 6 5 5 5 6 6 6 5 5 5 6 7 8 8 7 6 5 5 5 5 6 6 6 7 nan
nan 6 7 7 6 6 6 7 8 8 8 7 8 10 10 9 8 8 7 7 7 7 7 7 6 5 4 4 5 6 5 4 4 5 7 9 9 8 8 9 9 8 7 9 10 9 8 8 8 8 9 9 9 9 9 8 7 6 6 8 9 9 10 10 10 9 8 9 9 10 11 12 13 12 10 8 7 6 5 5 5 5 5 6 6 6 5 5 5 6 7 7 7 6 5 5 5 5 6 6 6 6 nan
nan 6 7 7 7 6 6 7 8 9 9 8 8 8 8 7 8 7 7 7 7 7 7 7 7 7 6 6 6 7 7 5 5 5 6 7 7 7 8 9 9 8 8 9 9 8 8 9 9 8 8 8 8 8 9 8 7 6 6 7 7 8 8 8 8 9 9 9 9 9 10 11 13 14 13 11 9 7 5 5 5 5 5 5 6 6 6 5 5 6 7 7 7 6 5 5 5 6 6 6 6 6 nan
nan 6 6 7 7 7 7 7 8 8 8 8 8 8 7 6 7 7 7 7 7 7 7 6 7 8 8 7 7 8 8 7 6 6 7 6 6 7 8 9 9 8 9 8 8 8 9 9 9 8 8 8 9 8 8 7 7 6 6 6 6 6 7 7 8 8 9 9 9 9 9 10 11 13 14 14 12 10 7 6 5 5 5 6 6 6 6 5 5 6 6 7 7 6 5 5 5 6 6 7 6 6 nan
nan 6 6 7 8 8 9 8 8 8 7 7 7 8 8 6 6 6 6 7 7 8 7 6 6 6 7 8 8 9 10 10 8 7 7 7 7 7 8 8 9 8 9 8 8 8 9 9 8 8 8 9 9 9 8 7 7 7 6 6 6 5 5 7 7 7 8 9 9 10 10 9 9 11 13 14 14 13 11 9 8 8 7 6 5 5 5 5 5 5 6 7 7 7 6 5 5 5 6 7 7 6 nan
nan 6 7 7 7 8 9 10 9 8 6 7 8 9 8 7 6 6 6 7 7 9 8 6 4 5 7 8 8 9 10 10 9 8 7 7 7 8 8 9 8 8 8 7 7 8 8 9 9 9 9 9 9 8 7 8 8 7 7 6 5 4 4 4 6 6 6 8 8 10 10 9 9 9 11 13 14 15 14 13 12 11 9 8 6 5 4 4 4 5 6 7 8 8 8 7 6 5 6 7 7 7 nan
nan 6 6 6 7 8 10 11 10 8 6 7 8 8 7 7 7 7 8 7 7 8 10 8 6 5 6 7 8 8 8 8 9 9 9 8 8 9 9 8 8 8 8 8 7 7 8 9 10 10 11 10 9 7 7 8 8 8 7 8 7 7 6 5 6 6 6 6 7 8 9 10 9 8 9 11 13 14 15 15 14 13 11 9 7 5 4 4 4 4 5 6 7 8 8 8 8 7 6 6 7 7 nan
nan 6 6 6 6 8 10 11 10 8 7 7 8 8 7 7 8 9 9 8 7 7 9 10 9 8 7 7 7 7 7 6 8 9 10 9 9 8 7 7 7 8 9 8 8 8 8 9 9 9 9 9 9 8 8 8 8 7 8 10 11 11 9 8 6 6 6 5 6 6 7 9 8 8 9 10 11 13 14 15 14 14 12 10 8 6 5 4 4 4 5 5 6 7 8 9 9 9 7 6 7 7 nan
nan 7 6 6 6 7 8 9 9 8 8 8 8 7 7 7 8 9 9 9 8 7 7 11 11 11 8 7 7 7 7 7 8 9 10 9 9 8 6 6 8 8 8 8 8 8 8 9 9 9 8 8 9 10 10 9 8 8 8 9 11 12 11 9 7 6 6 5 6 6 6 7 8 8 8 9 10 11 12 13 13 13 14 12 10 8 6 5 5 5 4 4 5 6 7 9 9 10 9 8 7 7 nan
nan 8 8 7 7 7 8 8 7 7 8 8 8 8 7 8 9 9 9 9 9 8 6 8 11 11 8 7 7 7 7 8 9 9 9 9 9 9 8 8 9 9 8 8 8 8 8 8 9 9 7 7 8 10 11 11 10 9 9 8 9 10 11 10 9 8 7 7 7 7 7 7 7 8 8 9 10 10 9 10 10 12 14 14 13 11 9 8 7 6 5 4 4 5 6 8 9 10 10 9 8 8 nan
nan 8 8 9 8 9 9 8 6 6 7 8 8 8 8 9 9 9 9 9 9 8 7 5 6 9 10 7 6 7 7 9 8 8 8 9 10 9 8 9 9 9 8 8 8 8 8 8 8 8 7 6 7 8 9 11 11 11 10 9 9 9 10 10 10 9 9 9 9 8 8 7 7 7 8 9 9 9 7 7 8 10 12 14 14 14 13 12 10 9 7 5 4 4 6 7 8 9 10 10 10 9 nan
nan 7 8 9 9 9 10 8 6 6 7 8 7 7 7 8 9 10 9 8 9 9 9 6 4 5 9 10 8 8 8 9 8 7 7 8 9 9 9 9 9 9 9 8 8 7 7 7 7 7 7 7 7 7 8 10 11 11 10 10 10 10 10 10 10 10 10 10 9 8 8 8 8 7 8 8 8 8 8 8 8 8 9 11 12 14 14 14 14 12 9 6 5 5 6 7 8 9 10 10 10 10 nan
nan 6 8 9 9 9 11 9 7 6 7 7 7 7 7 7 9 11 10 8 9 10 11 9 7 4 6 9 10 11 11 10 9 8 5 5 6 8 9 9 10 10 10 9 9 8 7 7 6 6 7 7 7 8 9 9 9 9 9 9 9 9 9 9 10 10 10 9 9 8 8 8 8 8 7 7 8 8 9 9 9 10 10 9 10 11 12 13 14 13 11 9 7 7 7 8 9 10 10 10 10 9 nan
nan 6 7 10 10 9 10 10 7 7 7 7 7 9 10 10 11 11 9 7 7 9 11 12 11 8 5 8 11 13 13 12 11 10 6 4 5 7 8 9 10 10 11 12 12 12 11 9 8 7 7 7 8 8 8 8 9 8 8 8 8 8 9 10 11 11 10 9 9 8 7 7 8 8 8 8 7 7 8 8 9 11 11 10 10 10 11 10 11 13 13 12 10 9 9 9 9 10 10 10 9 9 nan
nan 5 6 8 10 9 8 9 7 7 7 6 7 9 13 13 12 12 10 7 4 5 8 11 13 13 10 8 10 13 14 13 12 9 7 7 6 7 8 10 9 9 10 12 13 14 14 12 10 8 7 8 8 8 8 8 8 8 8 8 8 8 9 11 12 12 11 10 9 9 8 7 7 8 8 8 7 7 7 7 7 8 10 11 12 12 13 11 11 12 13 13 12 11 11 10 9 9 9 9 9 9 nan
nan 6 5 6 8 8 9 9 7 7 8 8 9 10 13 13 11 10 11 9 4 1 2 5 10 14 14 10 9 11 13 13 10 4 4 10 10 9 10 9 8 8 11 11 12 12 13 12 12 12 11 10 10 10 10 10 9 9 9 9 8 8 10 11 11 11 11 11 11 10 9 8 7 7 7 7 6 6 7 6 7 7 9 10 11 11 11 11 12 12 13 12 12 12 13 12 10 9 9 9 9 9 nan
nan 5 6 6 7 8 10 10 8 7 8 9 11 11 13 12 9 8 11 12 8 5 2 1 5 8 12 12 10 11 12 12 8 2 1 8 11 12 11 9 8 8 10 10 11 10 10 12 14 14 14 13 13 12 13 12 12 11 10 9 9 9 10 10 10 10 10 10 10 11 11 10 9 7 7 7 6 5 5 6 6 8 9 9 9 9 9 10 10 12 13 12 11 11 13 13 12 10 9 9 9 9 nan
nan 4 3 4 6 7 10 11 11 9 8 8 9 10 11 11 9 9 9 11 10 9 7 4 2 3 6 9 10 11 12 11 9 4 3 6 7 7 8 9 10 10 9 9 9 9 8 10 12 11 10 10 12 12 13 13 12 12 11 10 10 10 10 9 9 9 8 9 10 10 11 11 10 9 9 8 7 7 6 6 6 7 8 9 9 10 10 11 11 11 10 11 12 12 12 12 12 12 11 10 9 9 nan
nan 6 3 1 4 6 8 9 10 11 9 9 9 10 11 11 9 8 8 7 8 9 10 9 5 2 2 4 5 8 13 12 10 8 7 5 3 2 5 9 10 11 9 9 8 10 9 8 8 7 6 7 9 9 10 11 11 12 12 11 11 10 9 9 8 8 8 9 9 10 10 10 10 10 9 9 10 10 9 9 8 7 7 8 9 9 10 11 12 11 9 10 11 13 13 12 12 13 11 10 10 9 nan
nan 8 7 3 2 3 6 9 9 10 10 9 9 10 11 11 8 8 8 8 8 7 7 9 8 4 3 5 4 5 10 13 11 10 8 5 4 2 4 6 7 8 8 8 9 9 9 8 9 9 7 7 9 8 7 7 9 10 11 11 10 10 10 9 9 8 9 9 9 9 9 9 9 9 9 10 10 10 10 10 10 10 9 9 9 9 10 11 11 11 11 12 12 12 13 14 13 12 11 11 10 9 nan
nan 9 8 7 4 2 4 8 9 9 9 8 8 9 10 11 11 9 7 8 8 5 3 6 9 5 2 6 7 5 5 10 11 12 9 6 5 4 6 5 2 2 5 8 9 8 8 8 10 12 9 7 8 8 6 5 7 9 10 9 10 10 10 10 9 9 9 9 9 9 9 9 9 10 11 10 9 9 10 11 12 12 11 10 10 10 11 11 12 12 13 15 15 14 14 15 13 12 11 10 9 9 nan
nan 11 8 9 8 5 4 6 8 7 7 8 8 8 9 11 12 11 8 7 6 6 3 4 8 9 3 3 6 7 5 6 10 12 11 8 6 5 6 8 7 7 7 8 9 9 9 8 8 9 9 7 7 8 7 7 7 8 9 8 9 9 10 10 9 8 8 8 8 8 9 9 9 10 10 10 10 10 11 11 12 12 11 11 11 11 11 11 12 13 13 13 13 13 14 16 14 12 10 9 8 8 nan
nan 11 11 10 10 8 6 5 6 6 7 9 8 8 9 10 10 10 10 8 7 9 6 3 6 10 9 5 6 8 7 5 7 10 12 10 9 8 6 7 9 12 12 11 10 11 9 7 7 7 8 8 7 7 7 8 9 9 8 7 8 9 9 9 9 8 8 7 7 8 8 9 9 10 10 10 10 11 11 11 11 11 11 12 12 11 10 10 10 11 11 10 9 7 13 19 15 13 10 8 8 8 nan
nan 10 11 10 11 10 8 5 5 6 7 9 8 8 9 9 8 8 9 10 10 12 9 4 5 7 11 8 6 7 9 7 7 7 9 11 12 12 10 6 5 6 8 10 10 10 8 6 6 7 8 8 7 7 6 6 8 8 7 6 7 8 10 10 10 9 8 8 7 7 8 9 9 10 10 10 10 10 10 11 11 11 11 11 11 10 9 9 10 10 10 8 7 6 12 19 19 17 14 11 9 9 nan
nan 12 13 13 12 11 9 8 7 7 7 9 8 8 9 9 8 8 8 11 12 12 10 7 5 6 9 10 6 6 9 10 9 6 5 7 12 15 13 8 6 5 3 4 7 10 11 10 10 10 8 7 6 7 6 6 5 7 7 7 8 9 10 11 11 10 9 9 9 9 8 8 9 9 10 10 10 10 10 10 10 11 10 10 9 9 9 10 10 9 8 6 4 5 10 16 18 19 18 15 13 11 nan
nan nan nan nan nan nan nan nan nan nan nan nan nan nan nan nan nan nan nan nan nan nan nan nan nan nan nan nan nan nan nan nan nan nan nan nan nan nan nan nan nan nan nan nan nan nan nan nan nan nan nan nan nan nan nan nan nan nan nan nan nan nan nan nan nan nan nan nan nan nan nan nan nan nan nan nan nan nan nan nan nan nan nan nan nan nan nan nan nan nan nan nan nan nan nan nan nan nan nan nan nan nan nan
CAPE
193 100 64 44 31 31 20 15 13 13 15 23 29 29 35 41 41 47 47 53 53 56 52 47 39 39 40 27 18 18 17 33 57 57 85 114 114 150 135 94 94 61 28 3 nan nan nan nan nan nan nan nan nan nan nan nan nan nan nan nan nan nan 0 22 29 29 32 18 74 74 314 390 486 486 474 449 449 367 319 325 325 327 352 367 376 376 418 436 463 463 454 446 466 466 463 499 499 528 552 536 536 481 459
189 115 75 57 45 45 30 26 21 21 19 22 28 28 35 40 40 49 58 61 61 63 60 47 49 49 43 29 20 20 23 45 70 70 108 158 158 141 100 71 71 40 13 nan nan nan nan nan nan nan nan nan nan nan nan nan nan nan nan nan nan nan 13 27 33 33 27 14 61 61 282 325 393 393 463 433 433 331 239 187 187 165 187 197 232 232 247 285 298 298 287 309 332 332 364 361 361 422 479 497 497 447 428
160 144 85 60 48 48 44 34 29 29 24 22 26 26 32 41 41 46 61 68 68 71 62 52 51 51 49 32 23 23 28 52 81 81 135 151 151 120 81 54 54 24 3 nan nan nan nan nan nan nan nan nan nan nan nan nan nan nan nan nan nan 1 42 38 34 34 20 17 61 61 212 249 286 286 353 326 326 229 161 95 95 81 77 88 108 108 117 138 147 147 161 151 190 190 222 253 253 302 387 407 407 425 378
135 137 94 56 37 37 45 40 31 31 27 22 24 24 32 41 41 47 58 67 67 74 65 56 55 55 49 33 28 28 28 55 83 83 121 119 119 93 69 41 41 14 nan nan nan nan nan nan nan nan nan nan nan nan nan nan nan nan nan nan nan 34 62 53 41 41 20 29 75 75 159 190 166 166 195 177 177 142 91 67 67 45 37 25 29 29 33 44 62 62 63 63 78 78 88 121 121 187 239 286 286 306 300
87 114 91 59 34 34 45 42 33 33 28 24 26 26 27 36 36 46 51 59 59 71 68 64 61 61 52 39 28 28 25 42 68 68 94 94 94 79 49 25 25 3 nan nan nan nan nan nan nan nan nan nan nan nan nan nan nan nan nan nan nan 67 93 61 43 43 47 73 110 110 165 173 130 130 101 101 101 94 74 44 44 23 12 5 2 2 1 3 8 8 11 13 20 20 25 42 42 78 109 149 149 195 241
71 83 82 60 39 39 42 36 28 28 29 28 24 24 25 33 33 42 42 54 54 62 71 70 63 63 57 41 26 26 22 32 49 49 65 73 73 56 34 12 12 0 nan nan nan nan nan nan nan nan nan nan nan nan nan nan nan nan nan 6 6 90 107 66 61 61 78 113 166 166 172 177 113 113 88 76 76 80 48 32 32 21 11 4 3 3 2 2 3 3 3 5 6 6 5 5 5 18 45 68 68 96 154
69 75 71 61 49 49 43 31 24 24 28 29 25 25 26 28 28 34 38 45 45 53 67 75 64 64 55 41 24 24 14 16 28 28 39 39 39 29 16 2 2 nan nan nan nan nan nan nan nan nan nan nan nan nan nan nan nan nan nan 18 18 132 108 62 79 79 119 172 219 219 228 183 121 121 90 74 74 69 39 20 20 12 4 1 nan nan nan nan nan nan nan nan nan nan nan 0 0 1 7 29 29 33 59
70 81 81 74 67 67 48 35 28 28 29 27 26 26 27 29 29 32 32 35 35 45 57 70 60 60 55 46 24 24 10 5 12 12 16 17 17 13 4 nan nan nan nan nan nan nan nan nan nan nan nan nan nan nan nan nan nan nan nan 28 28 121 94 69 86 86 143 196 237 237 249 184 115 115 91 71 71 59 40 16 16 7 0 nan nan nan nan nan nan nan nan nan nan nan nan nan nan nan nan 4 4 15 30
82 95 99 96 82 82 58 39 31 31 27 25 24 24 24 26 26 27 27 30 30 39 53 69 60 60 54 42 30 30 11 0 1 1 1 2 2 0 nan nan nan nan nan nan nan nan nan nan nan nan nan nan nan nan nan nan nan nan nan 40 40 117 87 70 88 88 166 230 257 257 248 172 118 118 86 66 66 48 26 11 11 1 nan nan nan nan nan nan nan nan nan nan nan nan nan nan nan nan nan nan nan 4 11
101 112 129 118 93 93 60 40 32 32 30 25 21 21 19 16 16 17 19 22 22 29 45 64 58 58 49 41 33 33 15 2 nan nan nan nan nan nan nan nan nan nan nan nan nan nan nan nan nan nan nan nan nan nan nan nan nan nan nan 45 45 81 78 90 111 111 214 263 257 257 201 135 99 99 73 52 52 37 19 5 5 nan nan nan nan nan nan nan nan nan nan nan nan nan nan nan nan nan nan nan nan nan 5
114 108 102 100 95 95 66 49 35 35 28 23 17 17 11 10 10 10 13 17 17 24 38 55 60 60 44 36 29 29 18 2 nan nan nan nan nan nan nan nan nan nan nan nan nan nan nan nan nan nan nan nan nan nan nan nan nan nan nan 68 68 77 78 99 135 135 307 305 252 252 190 124 87 87 58 40 40 19 7 0 0 nan nan nan nan nan nan nan nan nan nan nan nan nan nan nan nan nan nan nan nan nan 1
147 109 94 94 99 99 71 54 42 42 33 21 11 11 7 4 4 6 10 14 14 20 35 51 58 58 45 34 28 28 20 5 nan nan nan nan nan nan nan nan nan nan nan nan nan nan nan nan nan nan nan nan nan nan nan nan nan nan 5 93 93 100 87 116 194 194 349 305 225 225 172 115 71 71 46 25 25 6 0 nan nan nan nan nan nan nan nan nan nan nan nan nan nan nan nan nan nan nan nan nan nan nan 1
119 111 109 95 110 110 81 59 41 41 30 19 10 10 4 3 3 3 8 12 12 18 33 50 57 57 47 36 30 30 22 7 nan nan nan nan nan nan nan nan nan nan nan nan nan nan nan nan nan nan nan nan nan nan nan nan nan nan 39 161 161 107 97 151 294 294 442 286 169 169 148 97 49 49 22 8 8 nan nan nan nan nan nan nan nan nan nan nan nan nan nan nan nan nan nan nan nan nan nan nan nan nan 1
102 105 89 80 96 96 91 64 42 42 31 20 9 9 3 2 2 3 8 14 14 21 33 48 58 58 45 34 25 25 16 7 nan nan nan nan nan nan nan nan nan nan nan nan nan nan nan nan nan nan nan nan nan nan nan nan nan nan 49 158 158 117 102 173 356 356 470 279 158 158 111 66 26 26 7 nan nan nan nan nan nan nan nan nan nan nan nan nan nan nan nan nan nan nan nan nan nan nan nan nan nan nan 0
73 79 59 66 86 86 87 70 46 46 34 22 9 9 4 2 2 3 7 17 17 23 34 48 55 55 42 26 12 12 4 0 nan nan nan nan nan nan nan nan nan nan nan nan nan nan nan nan nan nan nan nan nan nan nan nan nan nan 60 164 164 134 117 171 320 320 388 227 146 146 86 38 9 9 nan nan nan nan nan nan nan nan nan nan nan nan nan nan nan nan nan nan nan nan nan nan nan nan nan nan nan nan nan
26 6 16 57 72 72 70 61 53 53 35 21 12 12 5 2 2 1 6 17 17 28 37 49 49 49 38 14 nan nan 0 nan nan nan nan nan nan nan nan nan nan nan nan nan nan nan nan nan nan nan nan nan nan nan nan nan nan 3 56 159 159 169 142 147 266 266 221 152 107 107 57 22 2 2 nan nan nan nan nan nan nan nan nan nan nan nan nan nan nan nan nan nan nan nan nan nan nan 0 nan nan nan nan nan
nan nan 2 53 67 67 77 69 56 56 37 24 14 14 5 1 1 1 3 12 12 25 39 46 46 46 28 1 0 0 nan nan nan nan nan nan nan nan nan nan nan nan nan nan nan nan nan nan nan nan nan nan nan nan nan nan nan 0 51 144 144 188 159 134 199 199 160 113 76 76 45 17 1 1 nan nan nan nan nan nan nan nan nan nan nan nan nan nan nan nan nan nan nan nan nan nan nan 0 1 0 0 0 nan
nan nan 37 45 62 62 82 83 64 64 44 31 19 19 9 3 3 1 1 5 5 18 33 39 35 35 11 nan nan nan nan nan nan nan nan nan nan nan nan nan nan nan nan nan nan nan nan nan nan nan nan nan nan nan nan nan nan 4 54 126 126 184 168 132 153 153 132 90 65 65 36 14 1 1 nan nan nan nan nan nan nan nan nan nan nan nan nan nan nan nan nan nan nan nan nan nan nan nan 1 1 1 1 0
nan 8 27 37 53 53 73 84 75 75 56 37 24 24 15 6 6 1 0 1 1 8 19 23 15 15 nan nan nan nan nan nan nan nan nan nan nan nan nan nan nan nan nan nan nan nan nan nan nan nan nan nan nan nan nan nan nan nan 45 106 106 145 182 186 135 135 109 94 69 69 45 18 1 1 nan nan nan nan nan nan nan nan nan nan nan nan nan nan nan nan nan nan nan nan nan nan nan nan nan 2 2 1 1
nan 2 3 4 11 11 15 25 40 40 55 56 34 34 23 9 9 2 0 nan nan nan nan nan nan nan nan nan nan nan nan nan nan nan nan nan nan nan nan nan nan nan nan nan nan nan nan nan nan nan nan nan nan nan nan nan nan 1 57 77 77 92 147 257 246 246 142 97 79 79 65 34 4 4 nan nan nan nan nan nan nan nan nan nan nan nan nan nan nan nan nan nan nan nan nan nan nan nan nan nan nan 0 1
nan nan nan nan nan nan nan 5 15 15 12 32 0 0 nan nan nan nan nan nan nan nan nan nan nan nan nan nan nan nan nan nan nan nan nan nan nan nan nan nan nan nan nan nan nan nan nan nan nan nan nan nan nan nan nan nan nan 0 47 80 80 88 125 236 337 337 191 113 86 86 68 37 4 4 nan nan nan nan nan nan nan nan nan nan nan nan nan nan nan nan nan nan nan nan nan nan nan nan nan nan nan 1 0
nan nan nan nan nan nan nan nan 7 7 nan 1 nan nan nan nan nan nan nan nan nan nan nan nan nan nan nan nan nan nan nan nan nan nan nan nan nan nan nan nan nan nan nan nan nan nan nan nan nan nan nan nan nan nan nan nan nan 0 46 90 90 103 129 186 334 334 323 170 101 101 68 37 3 3 nan nan nan nan nan nan nan nan nan nan nan nan nan nan nan nan nan nan nan nan nan nan nan nan nan 0 0 2 1
nan nan nan nan nan nan nan nan nan nan nan 0 nan nan nan nan nan nan nan nan nan nan nan nan nan nan nan nan nan nan nan nan nan nan nan nan nan nan nan nan nan nan nan nan nan nan nan nan nan nan nan nan nan nan nan nan nan nan 34 89 89 114 142 192 376 376 469 232 122 122 75 39 2 2 nan nan nan nan nan nan nan nan nan nan nan nan nan nan nan nan nan nan nan nan nan nan nan nan nan 0 0 1 2
nan nan nan nan nan nan nan nan nan nan nan nan nan nan nan nan nan nan nan nan nan nan nan nan nan nan nan nan nan nan nan nan nan nan nan nan nan nan nan nan nan nan nan nan nan nan nan nan nan nan nan nan nan nan nan nan nan 0 11 64 64 111 147 214 420 420 525 337 174 174 88 38 4 4 nan nan nan nan nan nan nan nan nan nan nan nan nan nan nan nan nan nan nan nan nan nan nan nan nan nan nan 1 2
nan nan nan nan nan nan nan nan nan nan nan nan nan nan nan nan nan nan nan nan nan nan nan nan nan nan nan nan nan nan nan nan nan nan nan nan nan nan nan nan nan nan nan nan nan nan nan nan nan nan nan nan nan nan nan nan nan 0 0 30 30 87 136 198 370 370 533 426 225 225 114 61 9 9 nan nan nan nan nan nan nan nan nan nan nan nan nan nan nan nan nan nan nan nan nan nan nan nan nan nan nan 2 2
nan nan nan nan nan nan nan nan nan nan nan nan nan nan nan nan nan nan nan nan nan nan nan nan nan nan nan nan nan nan nan nan nan nan nan nan nan nan nan nan nan nan nan nan nan nan nan nan nan nan nan nan nan nan nan nan nan 0 0 3 3 51 114 170 280 280 481 496 341 341 166 87 25 25 1 nan nan nan nan nan nan nan nan nan nan nan nan nan nan nan nan nan nan nan nan nan nan nan nan 0 0 1 1
nan nan nan nan nan nan nan nan nan nan 0 nan nan nan nan nan nan nan nan nan nan nan nan nan nan nan nan nan nan nan nan nan nan nan nan nan nan nan nan nan nan nan nan nan nan nan nan nan nan nan nan nan nan nan nan nan nan nan 0 0 0 20 80 141 233 233 404 542 509 509 306 130 53 53 13 nan nan nan nan nan nan nan nan nan nan nan nan nan nan nan nan nan nan nan nan nan nan nan nan 0 0 1 0
nan nan nan nan nan nan nan nan nan nan nan nan nan nan 0 0 0 nan nan nan nan nan nan nan nan nan nan nan nan nan nan nan nan nan nan nan nan nan nan nan nan nan nan nan nan nan nan nan nan nan nan nan nan nan nan nan nan nan 0 0 0 3 55 117 162 162 322 532 644 644 589 237 86 86 31 10 10 nan nan nan nan nan nan nan nan nan nan nan nan nan nan nan nan nan nan nan nan nan 0 1 1 0 nan
nan nan nan nan nan nan nan nan nan nan nan nan nan nan nan 0 0 0 0 0 0 nan nan nan nan nan nan nan nan nan nan nan nan nan nan nan nan nan nan nan nan nan nan nan nan nan nan nan nan nan nan nan nan nan nan nan nan nan 0 1 1 1 32 88 131 131 234 467 640 640 644 375 133 133 52 24 24 6 nan nan nan nan nan nan nan nan nan nan nan nan nan nan nan nan nan nan nan nan 0 1 1 0 nan
nan nan nan nan nan nan nan nan nan nan nan nan nan nan nan nan nan nan nan 0 0 0 nan nan nan nan nan nan nan nan nan nan nan nan nan nan nan nan nan nan nan nan nan nan nan nan nan nan nan nan nan nan nan nan nan nan nan nan 0 0 0 0 12 57 97 97 156 329 543 543 580 542 206 206 75 37 37 15 1 nan nan nan nan nan nan nan nan nan nan nan nan nan nan nan nan nan nan nan 0 2 2 0 nan
nan nan nan nan nan nan nan nan nan nan nan nan nan nan nan nan nan nan nan nan nan nan nan nan nan nan nan nan nan nan nan nan nan nan nan nan nan nan nan nan nan nan nan nan nan nan nan nan nan nan nan nan nan nan nan nan nan nan 0 0 0 0 1 27 63 63 95 202 401 401 556 557 309 309 117 55 55 23 10 1 1 nan nan nan nan nan nan nan nan nan nan nan nan nan nan nan nan nan 2 3 3 1 nan
nan nan nan nan nan nan nan nan nan nan nan nan nan nan nan nan nan nan nan nan nan nan nan nan nan nan nan nan nan nan nan nan nan nan nan nan nan nan nan nan nan nan nan nan nan nan nan nan nan nan nan nan nan nan nan nan nan nan nan 0 0 0 nan 4 31 31 62 139 326 326 532 505 361 361 169 75 75 37 17 5 5 2 0 nan nan nan 0 1 1 1 1 nan nan nan nan nan nan nan 0 3 3 2 0
nan nan nan nan nan nan nan nan nan nan nan nan nan nan nan nan nan nan nan nan nan nan nan nan nan nan nan nan nan nan nan nan nan nan nan nan nan nan nan nan nan nan nan nan nan nan nan nan nan nan nan nan nan nan nan nan nan nan nan nan nan nan nan nan 7 7 32 78 211 211 421 456 358 358 227 115 115 54 26 16 16 8 6 4 2 2 5 5 7 7 5 2 nan nan nan nan nan nan nan 4 4 2 1
nan nan nan nan nan nan nan nan nan nan nan nan nan nan nan nan nan nan nan nan nan nan nan nan nan nan nan nan nan nan nan nan nan nan nan nan nan nan nan nan nan nan nan nan nan nan nan nan nan nan nan nan nan nan nan nan nan nan nan nan nan nan nan nan nan nan 8 37 97 97 289 401 357 357 303 196 196 79 45 28 28 16 13 10 9 9 10 10 13 13 13 8 2 2 nan nan nan nan nan 2 2 2 1
nan nan nan nan nan nan nan nan nan nan nan nan nan nan nan nan nan nan nan nan nan nan nan nan nan nan nan nan nan nan nan nan nan nan nan nan nan nan nan nan nan nan nan nan nan nan nan nan nan nan nan nan nan nan nan nan nan nan nan nan nan nan nan nan nan nan nan 7 41 41 123 324 303 303 343 242 242 131 69 48 48 30 24 20 19 19 19 19 20 20 19 15 9 9 2 nan nan nan nan nan nan 2 2
nan nan nan nan nan nan nan nan nan nan nan nan nan nan nan nan nan nan nan nan nan nan nan nan nan nan nan nan nan nan nan nan nan nan nan nan nan nan nan nan nan nan nan nan nan nan nan nan nan nan nan nan nan nan nan nan nan nan nan nan nan nan nan nan nan nan nan nan 5 5 47 161 232 232 264 254 254 190 120 66 66 49 40 29 30 30 33 29 28 28 27 22 17 17 12 4 4 nan nan nan nan 1 3
nan nan nan nan nan nan nan nan nan nan nan nan nan nan nan nan nan nan nan nan nan nan nan nan nan nan nan nan nan nan nan nan nan nan nan nan nan nan nan nan nan nan nan nan nan nan nan nan nan nan nan nan nan nan nan nan nan nan nan nan nan nan nan nan nan nan nan nan nan nan 9 58 151 151 198 205 205 221 178 109 109 71 57 51 49 49 47 41 35 35 31 27 23 23 19 15 15 8 1 0 0 2 5
nan nan nan nan nan nan nan nan nan nan nan nan nan nan nan nan nan nan nan nan nan nan nan nan nan nan nan nan nan nan nan nan nan nan nan nan nan nan nan nan nan nan nan nan nan nan nan nan nan nan nan nan nan nan nan nan nan nan nan nan nan nan nan nan nan nan nan nan nan nan nan 16 76 76 164 187 187 216 208 149 149 113 79 67 57 57 55 52 47 47 39 32 28 28 26 21 21 17 9 6 6 8 11
nan nan nan nan nan nan nan nan nan nan nan nan nan nan nan nan nan nan nan nan nan nan nan nan nan nan nan nan nan nan nan nan nan nan nan nan nan nan nan nan nan nan nan nan nan nan nan nan nan nan nan nan nan nan nan nan nan nan nan nan nan nan nan nan nan nan nan nan nan nan nan nan 17 17 102 157 157 201 206 178 178 136 97 88 70 70 70 63 50 50 43 38 37 37 32 29 29 25 22 15 15 16 17
nan nan nan nan nan nan nan nan nan nan nan nan nan nan nan nan nan nan nan nan nan nan nan nan nan nan nan nan nan nan nan nan nan nan nan nan nan nan nan nan nan nan nan nan nan nan nan nan nan nan nan nan nan nan nan nan nan nan nan nan nan nan nan nan nan nan nan nan nan nan nan nan nan nan 17 96 96 171 215 178 178 145 102 90 69 69 71 67 62 62 51 41 41 41 41 33 33 31 31 25 25 22 20
nan nan nan nan nan nan nan nan nan nan nan nan nan nan nan nan nan nan nan nan nan nan nan nan nan nan nan nan nan nan nan nan nan nan nan nan nan nan nan nan nan nan nan nan nan nan nan nan nan nan nan nan nan nan nan nan nan nan nan nan nan nan nan nan nan nan nan nan nan nan nan nan nan nan nan 18 18 103 177 176 176 156 121 75 56 56 57 62 61 61 57 45 42 42 47 49 49 41 35 31 31 28 23
nan nan nan nan nan nan nan nan nan nan nan nan nan nan nan nan nan nan nan nan nan nan nan nan nan nan nan nan nan nan nan nan nan nan nan nan nan nan nan nan nan nan nan nan nan nan nan nan nan nan nan nan nan nan nan nan nan nan nan nan nan nan nan nan nan nan nan nan nan nan nan nan nan nan nan nan nan 17 103 157 157 155 154 96 68 68 58 51 56 56 55 52 48 48 48 55 55 56 47 40 40 36 29
nan nan nan nan nan nan nan nan nan nan nan nan nan nan nan nan nan nan nan nan nan nan nan nan nan nan nan nan nan nan nan nan nan nan nan nan nan nan nan nan nan nan nan nan nan nan nan nan nan nan nan nan nan nan nan nan nan nan nan nan nan nan nan nan nan nan nan nan nan nan nan nan nan nan nan nan nan nan nan 0 0 10 36 94 115 115 91 83 85 85 101 107 115 115 106 121 121 122 111 77 77 52 46
nan nan nan nan nan nan nan nan nan nan nan nan nan nan nan nan nan nan nan nan nan nan nan nan nan nan nan nan nan nan nan nan nan nan nan nan nan nan nan nan nan nan nan nan nan nan nan nan nan nan nan nan nan nan nan nan nan nan nan nan nan nan nan nan nan nan nan nan nan nan nan nan nan nan nan nan nan nan nan nan nan nan 11 54 109 109 103 108 101 101 120 123 129 129 135 174 174 199 182 130 130 85 54
nan nan nan nan nan nan nan nan nan nan nan nan nan nan nan nan nan nan nan nan nan nan nan nan nan nan nan nan nan nan nan nan nan nan nan nan nan nan nan nan nan nan nan nan nan nan nan nan nan nan nan nan nan nan nan nan nan nan nan nan nan nan nan nan nan nan nan nan nan nan nan nan nan nan nan nan nan nan nan nan nan nan nan 15 54 54 97 93 111 111 134 140 128 128 117 172 172 218 223 206 206 128 79
nan nan nan nan nan nan nan nan nan nan nan nan nan nan nan nan nan nan nan nan nan nan nan nan nan nan nan nan nan nan nan nan nan nan nan nan nan nan nan nan nan nan nan nan nan nan nan nan nan nan nan nan nan nan nan nan nan nan nan nan nan nan nan nan nan nan nan nan nan nan nan nan nan nan nan nan nan nan nan nan nan nan nan nan 15 15 44 72 120 120 144 136 128 128 114 133 133 195 243 221 221 177 119
nan nan nan nan nan nan nan nan nan nan nan nan nan nan nan nan nan nan nan nan nan nan nan nan nan nan nan nan nan nan nan nan nan nan nan nan nan nan nan nan nan nan nan nan nan nan nan nan nan nan nan nan nan nan nan nan nan nan nan nan nan nan nan nan nan nan nan nan nan nan nan nan nan nan nan nan nan nan nan nan nan nan nan nan 0 0 16 44 82 82 105 147 104 104 81 96 96 151 216 238 238 210 162
nan nan nan nan nan nan nan nan nan nan nan nan nan nan nan nan nan nan nan nan nan nan nan nan nan nan nan nan nan nan nan nan nan nan nan nan nan nan nan nan nan nan nan nan nan nan nan nan nan nan nan nan nan nan nan nan nan nan nan nan nan nan nan nan nan nan nan nan nan nan nan nan nan nan nan nan nan nan nan nan nan nan nan nan nan nan 1 14 27 27 50 121 82 82 51 60 60 95 168 209 209 202 157
nan nan nan nan nan nan nan nan nan nan nan nan nan nan nan nan nan nan nan nan nan nan nan nan nan nan nan nan nan nan nan nan nan nan nan nan nan nan nan nan nan nan nan nan nan nan nan nan nan nan nan nan nan nan nan nan nan nan nan nan nan nan nan nan nan nan nan nan nan nan nan nan nan nan nan nan nan nan nan nan nan nan nan nan nan nan nan 1 7 7 24 50 44 44 34 39 39 68 114 146 146 175 153
nan nan nan nan nan nan nan nan nan nan nan nan nan nan nan nan nan nan nan nan nan nan nan nan nan nan nan nan nan nan nan nan nan nan nan nan nan nan nan nan nan nan nan nan nan nan nan nan nan nan nan nan nan nan nan nan nan nan nan nan nan nan nan nan nan nan nan nan nan nan nan nan nan nan nan nan nan nan nan nan nan nan nan nan nan nan nan nan nan nan 1 18 28 28 13 23 23 42 82 114 114 126 137
nan nan nan nan nan nan nan nan nan nan nan nan nan nan nan nan nan nan nan nan nan nan 0 nan nan nan nan nan nan nan nan nan nan nan nan nan nan nan nan nan nan nan nan nan nan nan nan nan nan nan nan nan nan nan nan nan nan nan nan nan nan nan nan nan nan nan nan nan nan nan nan nan nan nan nan nan nan nan nan nan nan nan nan nan nan nan nan nan nan nan nan 0 8 8 4 10 10 29 64 93 93 96 115
0 1 2 2 3 3 6 0 nan nan nan nan nan nan nan nan nan nan nan nan nan 0 2 3 nan nan nan nan nan nan nan nan nan nan nan nan nan nan nan nan nan 0 nan nan nan nan nan nan nan nan nan nan nan nan nan nan nan nan nan nan nan nan nan nan nan nan nan nan nan nan nan nan nan nan nan nan nan nan nan nan nan nan nan nan nan nan nan nan nan nan nan nan 0 0 4 7 7 17 49 76 76 88 93
13 14 13 18 24 24 21 3 nan nan nan nan nan nan nan nan nan nan nan nan nan 1 0 0 1 1 nan nan nan nan nan nan nan nan nan nan nan nan nan nan nan 0 nan nan nan nan nan nan nan nan nan nan nan nan nan nan nan nan nan nan nan nan nan nan nan nan nan nan nan nan nan nan nan nan nan nan nan nan nan nan nan nan nan nan nan nan nan nan nan nan nan nan nan nan 3 2 2 10 31 61 61 83 82
45 34 32 38 50 50 26 17 0 0 nan nan nan nan nan nan nan nan 0 0 0 1 2 0 0 0 1 nan nan nan nan nan nan nan nan nan nan nan nan nan nan nan nan nan 2 2 nan nan nan nan nan nan nan nan nan nan nan nan nan nan nan nan nan nan nan nan nan nan nan nan nan nan nan nan nan nan nan nan nan nan nan nan nan nan nan nan nan nan nan nan nan nan nan nan nan 1 1 5 20 46 46 66 72
68 66 47 59 57 57 56 39 3 3 nan 0 nan nan nan nan nan nan 0 0 0 2 3 2 3 3 4 4 nan nan nan nan nan nan nan nan nan nan nan nan nan nan nan nan nan nan 0 nan nan nan nan nan nan nan nan nan nan nan nan nan nan nan nan nan nan nan nan nan nan nan nan nan nan nan nan nan nan nan nan nan nan nan nan nan nan nan nan nan nan nan nan nan nan nan nan nan nan 1 12 31 31 52 62
101 77 54 51 65 65 85 108 47 47 4 nan nan nan nan nan nan nan nan 1 1 6 4 3 5 5 7 10 11 11 nan nan nan nan nan nan nan nan nan nan nan 0 0 nan nan nan nan nan nan nan nan nan nan nan nan nan nan nan nan nan nan nan nan nan nan nan nan nan nan nan nan nan nan nan nan nan nan nan nan nan nan nan nan nan nan nan nan nan nan nan nan nan nan nan nan nan nan nan 7 22 22 39 49
139 133 87 81 77 77 97 144 199 199 43 0 nan nan nan nan nan nan 1 7 7 7 9 16 9 9 6 13 16 16 2 nan nan nan nan nan nan nan nan nan nan 1 4 6 nan nan nan nan 5 5 4 nan nan nan nan nan nan nan nan nan nan nan nan nan nan nan nan nan nan nan nan nan nan nan nan nan nan nan nan nan nan nan nan nan nan nan nan nan nan nan nan nan nan nan nan nan nan nan 5 19 19 30 38
135 173 145 97 71 71 135 135 189 189 55 15 6 6 nan nan nan nan 8 13 13 11 15 24 11 11 8 17 12 12 12 16 nan nan nan nan nan nan nan nan nan nan nan nan nan nan nan nan 3 3 nan nan nan nan nan nan nan nan nan nan nan nan nan nan nan nan nan nan nan nan nan nan nan nan nan nan nan nan nan nan nan nan nan nan nan nan nan nan nan nan nan nan nan nan nan nan nan nan 4 18 18 29 36
130 166 162 135 131 131 203 204 208 208 137 16 39 39 nan nan nan 4 19 43 43 29 16 18 12 12 10 10 7 7 9 36 0 0 nan nan nan nan nan nan nan nan nan 0 0 0 nan 1 5 5 nan 2 nan nan nan nan nan nan nan nan nan nan nan nan nan nan nan nan nan nan nan nan nan nan nan nan nan nan nan nan nan nan nan nan nan nan nan nan nan nan nan nan nan nan nan nan nan nan 4 13 13 24 35
52 118 157 132 152 152 251 281 258 258 208 38 18 18 1 1 1 29 21 56 56 11 7 12 20 20 15 11 6 6 14 43 18 18 0 0 0 nan nan nan nan nan nan nan nan nan 0 4 nan nan nan 3 4 4 nan nan nan nan nan nan nan nan nan nan nan nan nan nan nan nan nan nan nan nan nan nan nan nan nan nan nan nan nan nan nan nan nan nan nan nan nan nan nan nan nan nan nan nan 0 9 9 20 33
nan 5 46 88 198 198 275 277 253 253 180 7 32 32 35 14 14 23 8 26 26 7 6 10 17 17 18 15 13 13 18 44 9 9 nan nan nan 1 nan nan nan nan nan nan nan nan nan nan nan nan nan 1 1 1 2 nan nan nan nan nan nan nan nan nan nan nan nan nan nan nan nan nan nan nan nan nan nan nan nan nan nan nan nan nan nan nan nan nan nan nan nan nan nan nan nan nan nan nan nan 2 2 13 28